{"data":{"norad_id":62319,"intl_designator":"2024-239U","name":"STARLINK-32527","alt_names":[],"object_type":"PAYLOAD","status":"ACTIVE","operator":null,"country":"US","launch_date":"2024-12-13","launch_site_code":"AFWTR","launch_vehicle":null,"mission":null,"orbit_class":"UNKNOWN","rcs_meters":null,"size_class":null,"mass_kg":null,"dimensions":null,"purposes":["comms"],"wikipedia_slug":null,"has_3d_model":false,"image_url":null,"decayed_at":null,"tle_current":{"epoch":"2026-05-25T03:22:11.449056Z","epoch_age_seconds":59038,"freshness":"FRESH","line1":"1 62319U 24239U   26145.14041029  .00010700  00000+0  37282-3 0  9992","line2":"2 62319  53.1576 185.6906 0001097  77.6558 282.4565 15.30204502 81272","mean_motion":15.30204502,"eccentricity":0.0001097,"inclination_deg":53.1576,"raan_deg":185.6906,"arg_perigee_deg":77.6558,"mean_anomaly_deg":282.4565,"bstar":0.00037282,"rev_number":8127,"period_min":94.105068840008,"perigee_km":474.44981604436,"apogee_km":475.95343853919,"semimajor_km":6853.3386272918,"source":"CELESTRAK","updated_at":"2026-05-25T13:38:19.650942Z"}}}